Flag for Switzerland Weather past 2 weeks in Geneva, Geneva, Switzerland

Now
65 °F

Scattered clouds.


Feels Like: 65 °F
Forecast: 52 / 68 °F
Wind: 2 mph from West

Location: Geneve-Cointrin

Current Time: Jul 28, 2014 at 8:44:19 AM

Latest Report: Jul 28, 2014 at 8:00 AM


Visibility: 13 mi

Pressure: 29.92 "Hg

Humidity: 82%

Dew point: 60 °F

Location of GenevaLocation

Historic Weather in Geneva — Graph

°F

Geneva temperature yesterday

Maximum temperature yesterday: 76 °F (at 7:00 PM)
Minimum temperature yesterday: 55 °F (at 5:00 AM)
Average temperature yesterday: 65 °F

Past Weeks' High & Low Weather Summary

 TemperatureHumidityPressure
High87 °F (Jul 18, 6:00 PM)96% (Jul 27, 7:00 AM)30.19 "Hg (Jul 27, 7:00 AM)
Low55 °F (Jul 27, 5:00 AM)25% (Jul 18, 6:00 PM)29.81 "Hg (Jul 25, 6:00 PM)
Average67 °F75%29.98 "Hg
* Reported Jul 13 7:00 AM — Jul 28 7:00 AM, Geneva, Weather by CustomWeather, © 2014

Note: Actual official high and low records may vary slightly from our data, if they occured in-between our weather recording intervals... More about our weather records

Advertising

Geneva weather history for previous 24 hours

 ConditionsComfort  
Time TempWeatherWind HumidityBarometerVisibility
7:00 AM
Jul 28
63 °FMild.2 mph89%29.93 "HgN/A
6:00 AM61 °FCool.1 mph91%29.94 "HgN/A
5:00 AM61 °FPassing clouds.No wind91%29.94 "Hg18 mi
4:00 AM62 °FCool.1 mph92%29.95 "HgN/A
3:00 AM63 °FMild.2 mph88%29.96 "HgN/A
2:00 AM65 °FOvercast.No wind84%29.97 "Hg22 mi
1:00 AM66 °FMild.3 mph83%29.98 "HgN/A
12:00 AM67 °FMild.No wind80%29.98 "HgN/A
11:00 PM
Jul 27
68 °FOvercast.2 mph79%29.98 "Hg28 mi
10:00 PM69 °FMild.2 mph77%29.98 "HgN/A
9:00 PM71 °FMild.3 mph68%29.96 "HgN/A
8:00 PM73 °FOvercast.2 mph62%29.96 "Hg19 mi
7:00 PM76 °FMild.6 mph53%29.95 "HgN/A
6:00 PM76 °FMild.3 mph52%29.95 "HgN/A
5:00 PM75 °FOvercast.5 mph54%29.96 "Hg19 mi
4:00 PM74 °FMild.5 mph54%29.97 "HgN/A
3:00 PM73 °FMild.7 mph62%29.98 "HgN/A
2:00 PM73 °FOvercast.10 mph59%29.99 "Hg22 mi
1:00 PM72 °FMild.9 mph61%30.00 "HgN/A
12:00 PM70 °FMild.5 mph65%30.02 "HgN/A
11:00 AM66 °FPassing clouds.2 mph76%30.03 "Hg19 mi
10:00 AM64 °FMild.5 mph78%30.04 "HgN/A
9:00 AM61 °FCool.1 mph87%30.05 "HgN/A
8:00 AM58 °FFog.1 mph91%30.06 "Hg19 mi
Weather by CustomWeather, © 2014

See weather overviewHow to use our weather pages